Simultaneous Nadir Overpasses (SNOs) Predictions

Prediction of SNOs between GOES-17 and METOP-B Satellite Orbit:

Table of predicted SNOs for the next 14.0 days since TLE Epoch: 1/15/2022
Index Date Time (GOES-17) GOES-17 Lat,Lon METOP-B Lat,Lon Distance(km) Time Diff (sec)
1 01/15/2022 18:22:44 -0.02,-137.22 -0.84,-133.48 426.26 80
2 01/17/2022 06:44:25 0.01,-137.25 -0.15,-138.08 94.50 80
3 01/18/2022 06:21:04 0.01,-137.27 0.93,-133.08 477.29 80
4 01/19/2022 18:42:35 -0.00,-137.32 0.09,-137.64 36.75 80
5 01/22/2022 06:38:14 -0.01,-137.36 0.00,-137.24 13.88 80
6 01/24/2022 18:36:25 0.01,-137.42 -0.13,-136.81 69.83 80
7 01/26/2022 06:58:05 -0.01,-137.43 -0.91,-141.40 452.69 80
8 01/27/2022 06:34:45 -0.00,-137.44 0.23,-136.41 117.48 80
9 01/28/2022 18:53:35 -0.02,-137.46 0.78,-140.97 400.04 80
